Location: Batang Balui
(2.7000°N, 113.7833°E)
Time: 02:22:03
(UTC+00:00)

FO-29 - Pass Details

Date: 06 April 2023
Orbit: 799 x 1322 km, 98.5° (Epoch: 29 May)

Event Time Altitude Azimuth Distance (km) Brightness Sun altitude
Rises 20:49:23 0° 16° (NNE) 3,850 12.9 -23.9°
Reaches altitude 10° 20:52:03 10° 18° (NNE) 2,820 12.2 -23.3°
Maximum altitude 20:58:18 73° 102° (ESE) 981 9.6 -21.7°
Drops below altitude 10° 21:03:52 10° 186° (S) 2,514 11.5 -20.4°
Sets 21:06:07 0° 188° (S) 3,405 12.2 -19.8°
